PEASSS

导读 | 豆包AI

PEASSS卫星由荷兰(NL)于2017年2月15日08:00发射升空。作为欧洲航天合作框架下的小型航天器,它依托荷兰在航天微电子、科学仪器领域的技术优势开展空间相关探测任务。荷兰作为欧洲航天局创始成员国,在卫星数据处理与应用领域积累深厚,该卫星的发射也延续了荷兰参与欧洲航天探索、推动空间技术应用发展的方向,助力区域航天科研与技术验证工作。

基本信息
目录编号:
42015
目录名称:
PEASSS
国际标识:
2017-008BV
轨道中心:
EARTH
卫星名称:
PEASSS
卫星全名:
--
卫星状态:
已陨落 最后检测时间 2023-12-01
发射日期:
2017-02-15 UTC
国别 :
荷兰 (NL)
星等 :
--
轨道信息
数据来源 国际轨道数据
星历时间: 2023-11-27T13:49:31+0800
轨道信息已过期859天
半长轴: 6583.365km
偏心率: 0.0005697
轨道倾角: 97.158°
近地点辐角 276.600°
升交点赤经 38.446°
平近点角 83.464°
近地点: 201.479km
远地点: 208.981km
周期: 88.600分钟
每日圈数: 16.252903
详细信息
使用方式:
暂无